Back to catalog

EUTE 7 WEST A

AB 7

AliveCommunicationsGEO
NORAD 37816·PAYLOAD·🇪🇺 EU

Launched Sep 24, 2011 from Sea Launch Platform

Loading…

TLE

FreshSource: Space-Track

Epoch: Sep 14, 2026, 08:38 UTC

1 37816U 11051A   26257.35983174 -.00000069  00000-0  00000-0 0  9991
2 37816   0.0632 352.7969 0005998 180.8597 301.9039  1.00272177 54773

Track EUTE 7 WEST A in real time with AllMySat

Download on the App Store